User: anonymous   Login
Location: UBC Liquid-Mirror Observatory
(49.2876°N, 122.5728°W)
Time: 19:30:38
(UTC-08:00)
Language:

Cosmos 1315 - Orbit

View from above orbital plane
View from above orbital plane
View from above satellite
View from above satellite

Ground track
Ground track

The orbit data is extracted from the following two-line orbital elements,

1 12903U 81103A   14332.50667948  .00048515  00000-0  68612-3 0  3450
2 12903 081.1312 307.4465 0006270 086.5877 023.5127 15.56297158815786
Epoch (UTC): 28 November 2014 12:09:37
Eccentricity: 0.0006270
inclination: 81.1312°
perigee height: 394 km
apogee height: 402 km
right ascension of ascending node: 307.4465°
argument of perigee: 86.5877°
revolutions per day: 15.56297158
mean anomaly at epoch: 23.5127°
orbit number at epoch: 81578

The dashed part of the orbit path shows where the satellite is in the earth's shadow,  

DLR